Terminal Aerodrome Forecast
Issued by NWS Chicago, IL

Home | Current Version | Previous Version | Graphics & Text | Print | Product List | Glossary On
Versions: 1 2 3 4 5 6 7 8 9 10 11 12 13 14 15 16 17 18 19 20 21 22 23 24 25 26 27 28 29 30 31 32 33 34 35
000
FTUS43 KLOT 260800 AAB
TAFRFD
TAF AMD
KRFD 260856Z 2609/2706 02011KT P6SM -SN SCT040 OVC100
     FM261200 36012KT P6SM SCT035
     FM262300 34007KT P6SM FEW040=

USA.gov is the U.S. government's official web portal to all federal, state and local government web resources and services.